Location: Drummondville
(45.8830°N, 72.4830°W)
Time: 16:41:11
(UTC-05:00)

N. Korean satellite - Pass Details

Date: 11 November 2017
Orbit: 460 x 515 km, 97.2° (Epoch: 17 November)

Event Time Altitude Azimuth Distance (km) Brightness Sun altitude
Rises 18:24:05 0° 191° (S) 2,473 10.3 -21.2°
Reaches altitude 10° 18:26:19 10° 204° (SSW) 1,606 9.5 -21.6°
Maximum altitude 18:29:18 27° 264° (W) 915 8.7 -22.1°
Drops below altitude 10° 18:32:21 10° 325° (NW) 1,633 9.6 -22.6°
Sets 18:34:38 0° 338° (NNW) 2,523 10.5 -23.0°
